FW7308 Weather Reports


time (UTC)temp
C
wind
direction
speed
KPH
gust
KPH
rain 1hr
cm
rain 24hr
cm
rain mn
cm
humidity
%
barometer
mb
20260510110130 8 317 4.8 8.0 0.00 0.00 0.03 99 1013.0
20260510105627 8 200 8.0 11.3 0.00 0.00 0.03 99 1013.0
20260510105127 8 115 14.5 14.5 0.00 0.00 0.03 99 1012.6
20260510104629 8 316 4.8 4.8 0.00 0.00 0.03 99 1012.6
20260510104127 8 312 3.2 3.2 0.00 0.00 0.03 99 1012.6
20260510103626 8 150 8.0 11.3 0.00 0.00 0.03 99 1012.6
20260510103128 8 62 4.8 4.8 0.00 0.00 0.03 99 1012.6
20260510102626 8 239 4.8 8.0 0.00 0.00 0.03 99 1012.3
20260510102126 8 154 4.8 9.7 0.00 0.00 0.03 99 1012.3
20260510101626 8 349 3.2 9.7 0.00 0.00 0.03 99 1012.3
20260510101124 8 164 9.7 17.7 0.00 0.00 0.03 99 1011.9
20260510100623 8 238 6.4 11.3 0.00 0.00 0.03 99 1011.7
20260510100225 8 124 8.0 14.5 0.00 0.00 0.03 99 1011.6
20260510095625 8 28 4.8 8.0 0.00 0.00 0.03 99 1011.9
20260510095223 8 158 8.0 11.3 0.00 0.00 0.03 99 1011.6
20260510094622 8 163 8.0 11.3 0.00 0.00 0.03 99 1011.6
20260510094121 8 282 6.4 9.7 0.00 0.00 0.03 99 1011.6
20260510093622 8 135 4.8 8.0 0.00 0.00 0.03 99 1011.7
20260510093123 8 186 6.4 9.7 0.00 0.00 0.03 99 1011.7
20260510092622 8 140 9.7 11.3 0.00 0.00 0.03 99 1011.6
20260510092120 8 296 3.2 4.8 0.00 0.00 0.03 99 1011.6
20260510091621 8 136 6.4 8.0 0.00 0.00 0.03 99 1011.4
20260510091120 8 215 6.4 12.9 0.00 0.00 0.03 99 1011.6
20260510090619 8 156 3.2 9.7 0.00 0.00 0.03 99 1011.6
20260510090121 8 5 3.2 4.8 0.00 0.00 0.03 99 1011.6
20260510085119 8 185 9.7 12.9 0.00 0.00 0.03 99 1011.2
20260510084620 8 42 3.2 8.0 0.00 0.00 0.03 99 1011.6
20260510084117 8 118 4.8 9.7 0.00 0.00 0.03 99 1011.9
20260510083616 8 135 6.4 11.3 0.00 0.00 0.03 99 1011.9
20260510083118 8 319 1.6 4.8 0.00 0.00 0.03 99 1011.9
20260510082617 8 343 0.0 1.6 0.00 0.00 0.03 99 1011.9
20260510082118 8 227 4.8 4.8 0.00 0.00 0.03 99 1012.3
20260510081617 8 123 4.8 8.0 0.00 0.00 0.03 99 1012.3
20260510081145 8 58 4.8 8.0 0.00 0.00 0.03 99 1012.3
20260510080646 8 107 6.4 8.0 0.00 0.00 0.03 99 1011.9
20260510080145 8 8 3.2 4.8 0.00 0.00 0.03 99 1011.9
20260510075645 8 8 1.6 3.2 0.00 0.00 0.03 99 1011.9
20260510075144 8 340 3.2 3.2 0.00 0.00 0.03 99 1012.3
20260510074645 8 354 3.2 3.2 0.00 0.00 0.03 99 1012.3
20260510074144 8 21 3.2 4.8 0.00 0.00 0.03 99 1011.9
20260510073744 8 39 4.8 8.0 0.00 0.00 0.03 99 1011.9
20260510073143 8 306 3.2 3.2 0.00 0.00 0.03 99 1011.9
20260510072644 8 28 3.2 4.8 0.00 0.00 0.03 99 1011.9
20260510072143 8 314 1.6 3.2 0.00 0.00 0.03 99 1011.9
20260510071642 8 204 1.6 3.2 0.00 0.00 0.03 99 1011.9
20260510071144 8 316 0.0 1.6 0.00 0.00 0.03 99 1011.9
20260510070141 8 2 3.2 3.2 0.00 0.00 0.03 99 1011.6
20260510065741 8 325 3.2 4.8 0.00 0.00 0.03 99 1011.9
20260510065140 8 330 1.6 1.6 0.00 0.00 0.03 99 1011.9
20260510064741 8 17 3.2 4.8 0.00 0.00 0.03 99 1011.9
20260510063639 8 359 1.6 3.2 0.00 0.00 0.03 99 1011.7
20260510063138 8 5 4.8 4.8 0.00 0.00 0.03 99 1011.9
20260510062639 8 7 3.2 3.2 0.00 0.00 0.03 99 1011.9
20260510062139 8 261 4.8 8.0 0.00 0.00 0.03 99 1011.9
20260510061638 8 352 1.6 1.6 0.00 0.00 0.03 99 1012.1
20260510061137 8 297 1.6 3.2 0.00 0.00 0.03 99 1011.9
20260510060636 8 28 3.2 3.2 0.00 0.00 0.03 99 1011.9
20260510060137 8 210 3.2 8.0 0.00 0.00 0.03 99 1011.9
20260510055638 8 331 3.2 3.2 0.00 0.00 0.03 99 1012.3
20260510055136 8 332 3.2 4.8 0.00 0.00 0.03 99 1011.9
20260510054637 8 356 1.6 3.2 0.00 0.00 0.03 99 1011.9
20260510054136 8 20 3.2 3.2 0.00 0.00 0.03 99 1011.9
20260510053635 8 2 1.6 3.2 0.00 0.00 0.03 99 1011.9
20260510053137 8 0.0 0.0 0.00 0.00 0.03 99 1012.3
20260510052635 8 0.0 0.0 0.00 0.00 0.03 99 1011.9
20260510052237 8 0.0 0.0 0.00 0.00 0.03 99 1012.3
20260510051634 8 0.0 0.0 0.00 0.00 0.03 99 1012.3
20260510051133 8 0.0 0.0 0.00 0.00 0.03 99 1012.3
20260510050632 8 347 0.0 1.6 0.00 0.00 0.03 99 1012.3
20260510050234 8 337 1.6 3.2 0.00 0.00 0.03 99 1012.3
20260510045636 8 356 0.0 1.6 0.00 0.00 0.03 99 1012.1
20260510045132 8 348 1.6 1.6 0.00 0.00 0.03 99 1012.3
20260510044631 8 14 1.6 3.2 0.00 0.00 0.03 99 1012.3
20260510044132 8 348 1.6 1.6 0.00 0.00 0.03 99 1012.4
20260510043632 8 351 1.6 1.6 0.00 0.00 0.03 99 1012.3
20260510043131 8 354 1.6 1.6 0.00 0.00 0.03 99 1012.3
20260510042630 8 41 3.2 4.8 0.00 0.00 0.00 99 1012.6
20260510042129 8 334 1.6 3.2 0.00 0.00 0.00 99 1012.3
20260510041630 8 16 3.2 3.2 0.00 0.00 0.00 99 1012.3
20260510041130 8 358 1.6 3.2 0.00 0.00 0.00 99 1012.6
20260510040629 8 347 1.6 1.6 0.00 0.00 0.00 99 1012.3
20260510040128 8 350 1.6 1.6 0.00 0.00 0.00 99 1012.3
20260510035730 8 35 3.2 4.8 0.00 0.00 1.22 99 1012.3
20260510035128 8 18 3.2 4.8 0.00 0.00 1.22 99 1012.6
20260510034628 8 11 1.6 3.2 0.00 0.00 1.22 99 1012.4
20260510034127 8 30 4.8 4.8 0.00 0.00 1.22 99 1012.6
20260510033628 8 81 6.4 8.0 0.00 0.00 1.22 99 1012.3
20260510033127 8 357 1.6 1.6 0.00 0.00 1.22 99 1012.6
20260510032626 8 31 3.2 4.8 0.00 0.00 1.22 99 1012.3
20260510032125 8 360 1.6 3.2 0.00 0.00 1.22 99 1012.3
20260510031625 8 302 3.2 4.8 0.00 0.00 1.22 99 1012.3
20260510031126 8 340 1.6 1.6 0.00 0.00 1.22 99 1012.6
20260510030625 8 51 4.8 4.8 0.00 0.00 1.22 99 1012.3
20260510030124 8 354 1.6 1.6 0.00 0.00 1.22 99 1012.6
20260510025625 8 341 1.6 1.6 0.00 0.00 1.22 99 1012.4
20260510025126 8 287 3.2 4.8 0.00 0.00 1.22 99 1012.3
20260510024626 8 63 3.2 4.8 0.00 0.00 1.22 99 1012.3
20260510023625 8 48 3.2 4.8 0.00 0.00 1.22 99 1012.6
20260510023124 8 32 3.2 3.2 0.00 0.00 1.22 99 1012.6
20260510022623 8 351 1.6 1.6 0.00 0.00 1.22 99 1013.0
20260510022122 8 14 3.2 4.8 0.00 0.00 1.22 99 1013.0
20260510021623 8 346 1.6 3.2 0.00 0.00 1.22 99 1013.0
20260510021122 8 15 3.2 4.8 0.00 0.00 1.22 99 1013.0
20260510020120 8 360 1.6 3.2 0.00 0.00 1.22 99 1013.0
20260510015622 8 345 1.6 1.6 0.00 0.00 1.22 99 1013.0
20260510015121 8 349 1.6 1.6 0.00 0.00 1.22 99 1013.0
20260510014620 8 347 1.6 1.6 0.00 0.00 1.22 99 1013.0
20260510013619 8 358 3.2 3.2 0.00 0.00 1.22 99 1013.0
20260510013120 8 350 1.6 1.6 0.00 0.00 1.22 99 1013.0
20260510012619 8 348 3.2 3.2 0.00 0.00 1.22 99 1013.0
20260510012118 8 65 4.8 9.7 0.00 0.00 1.22 99 1012.6
20260510011619 8 20 3.2 4.8 0.00 0.00 1.22 99 1013.0
20260510011118 8 356 1.6 1.6 0.00 0.00 1.22 99 1012.6
20260510010618 8 326 0.0 1.6 0.00 0.00 1.22 99 1013.0
20260510010220 8 326 3.2 3.2 0.00 0.00 1.22 99 1012.6
20260510005616 8 345 1.6 1.6 0.00 0.00 1.22 99 1012.6
20260510004646 8 342 1.6 3.2 0.00 0.00 1.22 99 1012.6
20260510004146 8 5 3.2 3.2 0.00 0.00 1.22 99 1012.6
20260510003646 8 46 3.2 4.8 0.00 0.00 1.22 99 1012.6
20260510003144 8 202 4.8 4.8 0.00 0.00 1.22 99 1012.6
20260510002647 8 349 1.6 3.2 0.00 0.00 1.22 99 1012.4
20260510002144 8 349 1.6 1.6 0.00 0.00 1.22 99 1012.3
20260510001643 8 128 6.4 8.0 0.00 0.00 1.22 99 1012.3
20260510001143 8 42 3.2 4.8 0.00 0.00 1.22 99 1012.3
20260510000645 8 193 6.4 9.7 0.00 0.00 1.22 99 1012.6
20260510000143 8 135 6.4 8.0 0.00 0.00 1.22 99 1012.3
20260509235644 8 294 3.2 4.8 0.00 0.00 1.22 99 1012.3
20260509235143 8 96 3.2 8.0 0.00 0.00 1.22 99 1012.3
20260509234646 7 48 3.2 4.8 0.00 0.00 1.22 99 1012.3
20260509234142 7 264 4.8 4.8 0.00 0.00 1.22 99 1012.3
20260509233641 7 303 1.6 3.2 0.00 0.00 1.22 99 1012.3
20260509233145 7 55 3.2 4.8 0.00 0.00 1.22 99 1012.3
20260509232646 7 6 3.2 3.2 0.00 0.00 1.22 99 1012.3
20260509232141 7 32 3.2 4.8 0.00 0.00 1.22 99 1012.3
20260509231640 7 34 3.2 4.8 0.00 0.00 1.22 99 1011.9
20260509230640 7 26 1.6 3.2 0.00 0.00 1.22 99 1012.3
20260509230241 7 341 3.2 4.8 0.00 0.00 1.22 99 1012.3
20260509225638 7 235 4.8 8.0 0.00 0.00 1.22 99 1012.3
20260509224657 7 89 4.8 9.7 0.00 0.00 1.22 99 1012.3
20260509223136 7 23 3.2 3.2 0.00 0.00 1.22 99 1012.3
20260509222638 7 319 1.6 3.2 0.00 0.00 1.22 99 1012.3
20260509222137 7 14 3.2 4.8 0.00 0.00 1.22 99 1012.3
20260509221135 7 342 1.6 3.2 0.00 0.00 1.22 99 1012.3
20260509220636 7 308 3.2 4.8 0.00 0.00 1.22 99 1012.3
20260509220135 7 99 6.4 11.3 0.00 0.00 1.22 99 1012.3
20260509215737 7 344 1.6 3.2 0.00 0.00 1.22 99 1012.3
20260509215134 7 134 6.4 11.3 0.00 0.00 1.22 99 1012.3
20260509214633 7 79 4.8 8.0 0.00 0.00 1.22 99 1012.4
20260509214134 7 140 6.4 9.7 0.00 0.00 1.22 99 1012.6
20260509213635 7 138 6.4 9.7 0.00 0.00 1.22 99 1012.6
20260509213133 7 88 4.8 8.0 0.00 0.00 1.22 99 1012.6
20260509212632 7 323 3.2 4.8 0.00 0.00 1.22 99 1012.6
20260509212134 7 304 3.2 4.8 0.00 0.00 1.22 99 1012.6
20260509211632 7 66 3.2 4.8 0.00 0.00 1.22 99 1012.8
20260509211131 7 257 3.2 3.2 0.00 0.00 1.22 99 1012.6
20260509210632 7 31 3.2 4.8 0.00 0.00 1.22 99 1012.6
20260509210132 7 63 4.8 4.8 0.00 0.00 1.22 99 1013.0
20260509205631 7 158 6.4 9.7 0.00 0.00 1.22 99 1013.0
20260509205130 7 113 4.8 8.0 0.00 0.00 1.22 99 1013.0
20260509204629 7 354 3.2 3.2 0.00 0.00 1.22 99 1013.0
20260509204130 7 55 3.2 4.8 0.00 0.00 1.22 99 1013.0
20260509203630 7 50 4.8 8.0 0.00 0.00 1.22 99 1013.3
20260509203129 7 169 6.4 8.0 0.00 0.00 1.19 99 1013.1
20260509202628 7 134 6.4 9.7 0.00 0.00 1.19 99 1013.3
20260509202132 7 166 9.7 11.3 0.00 0.00 1.17 99 1013.0
20260509201629 7 91 4.8 4.8 0.00 0.00 1.17 99 1013.0
20260509201128 7 169 8.0 11.3 0.00 0.00 1.17 99 1013.0
20260509200627 6 150 8.0 11.3 0.00 0.00 1.17 99 1013.0
20260509200126 7 22 3.2 4.8 0.00 0.00 1.14 99 1013.0
20260509195727 6 195 6.4 11.3 0.00 0.00 1.14 99 1013.0
20260509195127 6 112 4.8 8.0 0.00 0.00 1.14 99 1013.0
20260509194125 6 178 6.4 9.7 0.00 0.00 1.12 99 1013.1
20260509193626 6 32 4.8 4.8 0.00 0.00 1.09 99 1013.3
20260509193125 6 146 4.8 8.0 0.00 0.00 1.09 99 1013.3
20260509192624 6 152 6.4 8.0 0.00 0.00 1.07 99 1013.3
20260509192225 6 51 3.2 4.8 0.00 0.00 1.07 99 1013.3
20260509191624 6 147 6.4 9.7 0.00 0.00 1.04 99 1013.3
20260509191123 6 52 3.2 4.8 0.00 0.00 1.02 99 1013.7
20260509190622 6 131 8.0 11.3 0.00 0.00 0.99 99 1013.7
20260509190123 6 177 8.0 11.3 0.00 0.00 0.97 99 1013.7
20260509185622 6 131 8.0 12.9 0.00 0.00 0.97 99 1013.7
20260509184724 6 151 8.0 9.7 0.00 0.00 0.91 99 1013.7
20260509184122 6 120 6.4 8.0 0.00 0.00 0.89 99 1013.7
20260509183621 6 134 6.4 11.3 0.00 0.00 0.86 99 1013.7
20260509182622 6 209 4.8 8.0 0.00 0.00 0.84 99 1014.0
20260509182121 6 301 3.2 4.8 0.00 0.00 0.81 99 1014.0
20260509181620 6 125 8.0 11.3 0.00 0.00 0.81 99 1014.0
20260509181121 6 151 9.7 11.3 0.00 0.00 0.79 99 1014.0
20260509180618 6 143 6.4 9.7 0.00 0.00 0.79 99 1014.0
20260509180119 6 136 4.8 8.0 0.00 0.00 0.76 99 1014.0
20260509175619 6 152 8.0 11.3 0.00 0.00 0.74 99 1014.0
20260509175118 6 142 6.4 9.7 0.00 0.00 0.74 99 1014.2
20260509174622 6 155 8.0 12.9 0.00 0.00 0.71 99 1014.0
20260509174219 6 124 8.0 11.3 0.00 0.00 0.71 99 1014.0
20260509173618 6 189 8.0 11.3 0.00 0.00 0.69 99 1014.2
20260509173117 6 164 6.4 9.7 0.00 0.00 0.66 99 1014.2
20260509172118 6 298 4.8 4.8 0.00 0.00 0.64 99 1014.0
20260509171617 6 147 6.4 9.7 0.00 0.00 0.61 99 1014.4
20260509171116 6 102 4.8 8.0 0.00 0.00 0.58 99 1014.4
20260509170645 6 140 6.4 9.7 0.00 0.00 0.56 99 1014.4
20260509170147 6 129 4.8 8.0 0.00 0.00 0.53 99 1014.4
20260509165645 6 154 8.0 11.3 0.00 0.00 0.51 99 1014.4
20260509165144 6 33 3.2 4.8 0.00 0.00 0.48 99 1014.4
20260509164643 6 92 4.8 4.8 0.00 0.00 0.48 99 1014.5
20260509164145 6 12 3.2 4.8 0.00 0.00 0.46 99 1014.7
20260509163644 5 316 3.2 3.2 0.00 0.00 0.43 99 1014.7
20260509163143 5 352 1.6 3.2 0.00 0.00 0.43 99 1014.7
20260509162642 5 122 6.4 11.3 0.00 0.00 0.41 99 1014.7
20260509162141 5 106 4.8 8.0 0.00 0.00 0.41 99 1014.7
20260509161643 6 354 1.6 3.2 0.00 0.00 0.41 99 1015.1
20260509161142 5 52 3.2 4.8 0.00 0.00 0.38 99 1015.1
20260509160641 5 288 4.8 4.8 0.00 0.00 0.38 99 1015.1
20260509160140 5 2 3.2 3.2 0.00 0.00 0.36 99 1015.1
20260509155641 5 338 1.6 1.6 0.00 0.00 0.36 99 1015.1
20260509155140 5 286 3.2 4.8 0.00 0.00 0.33 99 1015.1
20260509154640 5 305 3.2 4.8 0.00 0.00 0.33 99 1015.1
20260509154141 5 153 6.4 9.7 0.00 0.00 0.30 99 1015.4
20260509153640 5 322 3.2 4.8 0.00 0.00 0.30 99 1015.2
20260509153139 5 324 3.2 3.2 0.00 0.00 0.28 99 1015.4
20260509152740 5 111 4.8 8.0 0.00 0.00 0.28 99 1015.4
20260509152139 5 51 4.8 8.0 0.00 0.00 0.25 99 1015.4
20260509151638 5 39 4.8 4.8 0.00 0.00 0.25 99 1015.4
20260509151137 5 339 3.2 3.2 0.00 0.00 0.23 99 1015.8
20260509150636 5 14 3.2 3.2 0.00 0.00 0.23 99 1015.4
20260509145639 5 295 3.2 4.8 0.00 0.00 0.18 99 1015.4
20260509144637 5 25 4.8 8.0 0.00 0.00 0.15 99 1015.4
20260509144139 5 40 4.8 8.0 0.00 0.00 0.13 99 1015.4
20260509143636 5 5 3.2 3.2 0.00 0.00 0.13 99 1015.4
20260509143135 5 34 1.6 3.2 0.00 0.00 0.10 99 1015.1
20260509142135 5 21 3.2 3.2 0.00 0.00 0.10 99 1015.1
20260509141635 5 20 3.2 4.8 0.00 0.00 0.08 99 1015.2
20260509141135 5 336 1.6 1.6 0.00 0.00 0.08 99 1015.4
20260509140636 5 343 0.0 1.6 0.00 0.00 0.08 99 1015.1
20260509140134 5 21 3.2 3.2 0.00 0.00 0.08 99 1015.2
20260509135634 5 243 1.6 3.2 0.00 0.00 0.05 98 1015.1
20260509135135 5 133 4.8 8.0 0.00 0.00 0.05 97 1015.1
20260509134635 5 227 4.8 8.0 0.00 0.00 0.03 96 1015.1
20260509134131 5 348 1.6 3.2 0.00 0.00 0.03 95 1015.1
20260509133632 5 215 4.8 9.7 0.00 0.00 0.03 94 1015.1
20260509133134 5 342 3.2 4.8 0.00 0.00 0.00 94 1015.1
20260509132630 5 4 1.6 4.8 0.00 0.00 0.00 93 1015.1
20260509132130 5 343 1.6 3.2 0.00 0.00 0.00 93 1015.1
20260509131130 5 349 1.6 1.6 0.00 0.00 0.00 91 1015.1
20260509130128 5 18 3.2 3.2 0.00 0.00 0.00 89 1015.1
20260509125630 5 24 4.8 4.8 0.00 0.00 0.00 87 1015.1
20260509125129 5 193 4.8 8.0 0.00 0.00 0.00 86 1015.1
20260509124628 5 100 4.8 4.8 0.00 0.00 0.00 84 1015.1
20260509124127 5 131 6.4 8.0 0.00 0.00 0.00 83 1015.1
20260509123630 5 199 4.8 8.0 0.00 0.00 0.00 82 1015.1
20260509122229 5 41 4.8 4.8 0.00 0.00 0.00 82 1015.1
20260509121727 5 63 4.8 8.0 0.00 0.00 0.00 82 1015.4
20260509121126 5 169 6.4 9.7 0.00 0.00 0.00 82 1015.1
20260509120726 5 110 4.8 9.7 0.00 0.00 0.00 82 1015.4
20260509120126 5 22 4.8 4.8 0.00 0.00 0.00 82 1015.4
20260509115625 5 66 4.8 4.8 0.00 0.00 0.00 83 1015.4
20260509115124 5 357 3.2 3.2 0.00 0.00 0.00 82 1015.4
20260509114624 5 318 3.2 3.2 0.00 0.00 0.00 83 1015.4
20260509114125 5 17 3.2 3.2 0.00 0.00 0.00 83 1015.2
20260509113627 5 55 4.8 8.0 0.00 0.00 0.00 83 1015.1
20260509113228 5 28 4.8 4.8 0.00 0.00 0.00 82 1015.4
20260509112622 4 33 3.2 4.8 0.00 0.00 0.00 83 1015.2
20260509112222 4 360 3.2 3.2 0.00 0.00 0.00 85 1015.4
20260509111623 4 339 0.0 1.6 0.00 0.00 0.00 85 1015.4
20260509111122 4 0.0 0.0 0.00 0.00 0.00 84 1015.4
20260509110621 4 354 1.6 1.6 0.00 0.00 0.00 85 1015.4